{"data":{"norad_id":66434,"epoch":"2026-05-25T04:26:40.005600Z","epoch_age_seconds":59201,"freshness":"FRESH","line1":"1 66434U 25259N   26145.18518525  .00019301  00000+0  70846-3 0  9990","line2":"2 66434  42.9997 202.0482 0001520 268.3925  91.6753 15.27608692 31197","mean_motion":15.27608692,"eccentricity":0.000152,"inclination_deg":42.9997,"raan_deg":202.0482,"arg_perigee_deg":268.3925,"mean_anomaly_deg":91.6753,"bstar":0.00070846,"rev_number":3119,"period_min":94.26497816759,"perigee_km":481.92029598664,"apogee_km":484.00607044233,"semimajor_km":6861.1001832145,"source":"CELESTRAK","updated_at":"2026-05-25T13:38:21.209395Z"}}